Weather History for Bradford, PA

Change the Weather History Date:

Monday, March 4, 2013

  Actual Average Record
Temperature  
Mean Temperature 19 °F 27 °F  
Max Temperature 21 °F 37 °F 65 °F (1974)
Min Temperature 17 °F 18 °F -13 °F (2014)
Degree Days  
Heating Degree Days 46 32  
Month to date heating degree days 130  
Since 1 July heating degree days 5700  
Cooling Degree Days 0 0  
Month to date cooling degree days 0  
Year to date cooling degree days 0  
Moisture  
Dew Point 14 °F    
Average Humidity 80    
Maximum Humidity 85    
Minimum Humidity 74    
Precipitation  
Precipitation 0.00 in 0.10 in 1.27 in (1964)
Month to date precipitation 0.39  
Year to date precipitation 6.03  
Sea Level Pressure  
Sea Level Pressure 29.95 in    
Wind  
Wind Speed 13 mph (WNW)    
Max Wind Speed 20 mph    
Max Gust Speed 29 mph    
Visibility 6 miles    
Events Snow    
T = Trace of Precipitation, MM = Missing Value Source: NWS Daily Summary

Daily Weather History Graph

Daily Weather History Graph

Search for Another Location

Airport:

Trip Planner

Search our weather history database for the weather conditions in past years. The results will help you decide how hot, cold, wet, or windy it might be!

Date:

Astronomy

Mar. 04, 2013 Rise Set
Actual Time 6:44 AM EST 6:08 PM EST
Civil Twilight 6:16 AM EST 6:36 PM EST
Nautical Twilight 5:44 AM EST 7:08 PM EST
Astronomical Twilight 5:11 AM EST 7:41 PM EST
Moon 12:55 AM EST (3/4) 10:45 AM EST (3/4)
Length of Visible Light 12h 20m
Length of Day
11h 24m
Waning Gibbous, 52% of the Moon is Illuminated
Mar 4
Waning Gibbous
Mar 4
Last Quarter
Mar 11
New
Mar 19
First Quarter
Mar 27
Full

Hourly Weather History & Observations

Time (EST) Temp. Windchill Dew Point Humidity Pressure Visibility Wind Dir Wind Speed Gust Speed Precip Events Conditions
12:16 AM 18.0 °F 4.8 °F 12.0 °F 78% 29.83 in 2.5 mi WNW 12.7 mph - 0.00 in Snow Light Snow
12:33 AM 18.0 °F 4.8 °F 12.0 °F 78% 29.83 in 3.0 mi WNW 12.7 mph - 0.00 in Snow Light Snow
12:53 AM 18.0 °F 4.8 °F 12.0 °F 78% 29.91 in 3.0 mi WNW 12.7 mph 24.2 mph 0.00 in Snow Light Snow
1:09 AM 18.0 °F 3.1 °F 12.0 °F 78% 29.83 in 2.5 mi WNW 16.1 mph 20.7 mph 0.00 in Snow Light Snow
1:27 AM 18.0 °F 4.8 °F 10.9 °F 74% 29.84 in 2.5 mi WNW 12.7 mph - 0.00 in Snow Light Snow
1:53 AM 17.1 °F 4.3 °F 10.9 °F 77% 29.93 in 2.5 mi WNW 11.5 mph - 0.00 in Snow Light Snow
2:00 AM 17.1 °F 4.3 °F 10.9 °F 77% 29.84 in 4.0 mi WNW 11.5 mph 21.9 mph 0.00 in Snow Light Snow
2:43 AM 17.1 °F 4.3 °F 10.9 °F 77% 29.84 in 2.5 mi WNW 11.5 mph - 0.00 in Snow Light Snow
3:31 AM 17.1 °F 5.0 °F 10.9 °F 77% 29.84 in 3.0 mi WNW 10.4 mph - 0.00 in Snow Light Snow
4:21 AM 17.1 °F 3.0 °F 12.0 °F 81% 29.85 in 8.0 mi WNW 13.8 mph - 0.00 in Snow Light Snow
4:53 AM 18.0 °F 4.8 °F 12.0 °F 78% 29.95 in 3.0 mi WNW 12.7 mph - 0.00 in Snow Light Snow
5:53 AM 18.0 °F 1.7 °F 12.0 °F 78% 29.96 in 5.0 mi WNW 19.6 mph 25.3 mph 0.00 in Snow Light Snow
6:48 AM 17.6 °F 1.3 °F 12.2 °F 79% 29.88 in 8.0 mi NW 19.6 mph 28.8 mph 0.00 in   Overcast
7:53 AM 19.0 °F 4.5 °F 14.0 °F 81% 29.99 in 5.0 mi NW 16.1 mph 24.2 mph 0.00 in Snow Light Snow
8:14 AM 19.0 °F 4.0 °F 14.0 °F 81% 29.90 in 2.5 mi NW 17.3 mph 24.2 mph 0.00 in Snow Light Snow
8:44 AM 19.0 °F 4.0 °F 15.1 °F 85% 29.91 in 4.0 mi NW 17.3 mph 24.2 mph 0.00 in   Overcast
8:53 AM 19.0 °F 3.6 °F 15.1 °F 85% 30.00 in 3.0 mi WNW 18.4 mph 26.5 mph 0.00 in   Overcast
9:53 AM 19.9 °F 7.9 °F 15.1 °F 81% 30.00 in 4.0 mi WNW 11.5 mph - 0.00 in Snow Light Snow
10:53 AM 21.0 °F 7.6 °F 16.0 °F 81% 30.00 in 3.0 mi WNW 15.0 mph 21.9 mph 0.00 in Snow Light Snow
11:05 AM 21.9 °F 9.2 °F 16.0 °F 78% 29.92 in 2.5 mi WNW 13.8 mph 27.6 mph 0.00 in Snow Light Snow
11:15 AM 21.9 °F 8.7 °F 16.0 °F 78% 29.92 in 3.0 mi West 15.0 mph 23.0 mph 0.00 in Snow Light Snow
11:53 AM 21.9 °F 8.7 °F 16.0 °F 78% 30.01 in 6.0 mi WNW 15.0 mph 23.0 mph 0.00 in   Haze
12:53 PM 21.9 °F 8.2 °F 17.1 °F 82% 30.00 in 7.0 mi West 16.1 mph - 0.00 in   Overcast
1:03 PM 21.9 °F 9.8 °F 17.1 °F 82% 29.92 in 6.0 mi West 12.7 mph 24.2 mph N/A   Haze
1:53 PM 21.9 °F 7.8 °F 17.1 °F 82% 30.01 in 7.0 mi WNW 17.3 mph 23.0 mph 0.00 in   Overcast
2:53 PM 21.9 °F 10.4 °F 17.1 °F 82% 30.01 in 7.0 mi West 11.5 mph 21.9 mph 0.00 in Snow Light Snow
3:53 PM 21.9 °F 9.8 °F 17.1 °F 82% 30.01 in 9.0 mi WNW 12.7 mph - 0.00 in   Overcast
4:53 PM 21.9 °F 8.7 °F 16.0 °F 78% 30.02 in 10.0 mi WNW 15.0 mph 24.2 mph N/A   Overcast
5:45 PM 21.0 °F 9.9 °F 16.0 °F 81% 29.94 in 10.0 mi WNW 10.4 mph 18.4 mph N/A   Overcast
5:53 PM 21.0 °F 9.9 °F 16.0 °F 81% 30.03 in 10.0 mi West 10.4 mph - N/A   Overcast
6:53 PM 21.0 °F 7.1 °F 16.0 °F 81% 30.05 in 10.0 mi WNW 16.1 mph 21.9 mph N/A   Overcast
7:53 PM 19.9 °F 10.1 °F 15.1 °F 81% 30.05 in 10.0 mi WNW 8.1 mph - N/A   Overcast
8:32 PM 19.9 °F 6.7 °F 14.0 °F 78% 29.97 in 10.0 mi NW 13.8 mph - N/A   Overcast
8:53 PM 19.9 °F 10.1 °F 14.0 °F 78% 30.06 in 8.0 mi NW 8.1 mph - N/A   Overcast
9:42 PM 19.9 °F 8.6 °F 14.0 °F 78% 29.97 in 10.0 mi NW 10.4 mph - N/A   Overcast
9:53 PM 19.9 °F 9.3 °F 14.0 °F 78% 30.06 in 10.0 mi NW 9.2 mph - N/A   Overcast
10:53 PM 19.9 °F 9.3 °F 15.1 °F 81% 30.06 in 10.0 mi NW 9.2 mph - N/A   Overcast
11:53 PM 19.9 °F 8.6 °F 16.0 °F 85% 30.05 in 10.0 mi NW 10.4 mph - N/A   Overcast